{"data":{"norad_id":67430,"intl_designator":"2026-005AC","name":"STARLINK-36515","alt_names":[],"object_type":"PAYLOAD","status":"ACTIVE","operator":null,"country":"US","launch_date":"2026-01-12","launch_site_code":"AFETR","launch_vehicle":null,"mission":null,"orbit_class":"UNKNOWN","rcs_meters":null,"size_class":null,"mass_kg":null,"dimensions":null,"purposes":["comms"],"wikipedia_slug":null,"has_3d_model":false,"image_url":null,"decayed_at":null,"tle_current":{"epoch":"2026-09-19T14:50:56.179392Z","epoch_age_seconds":151555,"freshness":"FRESH","line1":"1 67430U 26005AC  26262.61870578  .00008649  00000+0  32336-3 0  9999","line2":"2 67430  43.0004 222.9274 0001448 275.4686  84.6000 15.27590034 38348","mean_motion":15.27590034,"eccentricity":0.0001448,"inclination_deg":43.0004,"raan_deg":222.9274,"arg_perigee_deg":275.4686,"mean_anomaly_deg":84.6,"bstar":0.00032336,"rev_number":3834,"period_min":94.266129520979,"perigee_km":482.02555540225,"apogee_km":484.01254619456,"semimajor_km":6861.1560507984,"source":"CELESTRAK","updated_at":"2026-09-20T09:00:43.525403Z"}}}